COSMOS 2251 DEB

Satellite information

Favourite Embed

Satellite Type and Status

DEBRISIN ORBIT

Key statistics

Satellite COSMOS 2251 DEB at a glance.

Uptime

11869

Days in orbit

Revolutions

≈ 14.6

Per day

Orbit

LEO

Low Earth Orbit

Inclination

74.0

Latest

Satellite identification and parameters

Extended collection of information and parameters for COSMOS 2251 DEB.

Object identification

Identified? True

Debris? True

Object name: COSMOS 2251 DEB

International designator: 1993-036HS

Object number (NORAD): 34031

Object ID (CCSDS): 34031

Country: COMMONWEALTH OF INDEPENDENT STATES (CIS)

Current information (Y/N): Y

RCS size: SMALL

Orbital parameters

Period: 98.652 minutes

Inclination: 74.0124 deg

SMA: 7072.352 km

Apoapsis: 710.454 km

Periapsis: 677.98 km

RAAN: 136.6947 deg

Eccentricy: 0.00229588

Argument of periapsis: 256.9886 deg

Mean anomaly: 158.7755 deg

Mean motion: 14.59677611 rev/day

Mean motion (dot): 0.00010179 rev/day2

B* drag term: 0.0021313837 1/REarth

Two-line elements (TLE)

Creation date: Dec. 12, 2025, 10:14 a.m.

Reference frame: TEME

Reference center: EARTH

Epoch: Dec. 12, 2025, 5:20 a.m. UTC

TLE line 0: 0 COSMOS 2251 DEB

TLE line 1: 1 34031U 93036HS 25346.22290079 .00010179 00000-0 21314-2 0 9994

TLE line 2: 2 34031 74.0124 136.6947 0022959 256.9886 158.7755 14.59677611885587

Live tracking on map

Real-time ground track for satellite COSMOS 2251 DEB.

In-orbit conjunctions

A list of the most updated potential collisions computed for object COSMOS 2251 DEB.

Target Orbit TCA Probability of collision Miss distance Type
CZ-4 DEB SSO 2025-08-24 00:13:57 0.00138254 94.0 (m) DEBRIS
RUBIN 3/SL-8 SSO 2025-01-29 21:57:43 0.0001903974 312.0 (m) PAYLOAD
CZ-6A DEB LEO 2024-11-25 22:01:50 0.0001381014 406.0 (m) DEBRIS

Associated space launch

Military communications satellite. Destroyed in a collision with Iridium 33.

COSMOS 2251 DEB was lifted into orbit during the mission ‘Kosmos-3M | Strela-2M 51’, on board a Kosmos-3M space rocket.

The launch took place on June 16, 1993, 4:17 a.m. from 132/1 (132L).

For more information about the launch, click the button.

Launch to space Kosmos-3M | Strela-2M 51
Kosmos-3M | Strela-2M 51

Agency: N/A

Status: Launch Successful

Launch date: June 16, 1993, 4:17 a.m. UTC

Rocket: Kosmos-3M

Launch pad: 132/1 (132L)

Location: Plesetsk Cosmodrome, Russian Federation

...

Latest news about this satellite

There are no fresh news available about this satellite. Check back as we update our databases every day.


Newsletter sign-up

Weekly statistics, charts and insights to help you stay on top of the space industry.